Battle Creek, MI

7:41 PM EST on December 12, 2019 (GMT -0500)
Kellogg

Weather History for KBTL - July, 2019

Change the Weather History Date:

Sunday, July 14, 2019

  Actual Average Record
Temperature  
Mean Temperature 77 °F 71 °F  
Max Temperature 87 °F 83 °F 93 °F (1997)
Min Temperature 66 °F 59 °F 53 °F (2001)
Degree Days  
Heating Degree Days 0 0  
Month to date heating degree days 0 6  
Since 1 June heating degree days 46 63  
Since 1 July heating degree days 0 6  
Cooling Degree Days 12 7  
Month to date cooling degree days 157 94  
Year to date cooling degree days 298 258  
Since 1 June cooling degree days 282 220  
Growing Degree Days 26 (Base 50)    
Moisture  
Dew Point 58 °F    
Average Humidity 57    
Maximum Humidity 78    
Minimum Humidity 35    
Precipitation  
Precipitation 0.00 in 0.10 in 0.59 in (2015)
Month to date precipitation 1.07 1.49  
Year to date precipitation 19.36 16.20  
Sea Level Pressure  
Sea Level Pressure 30.11 in    
Wind  
Wind Speed 4 mph (NNE)    
Max Wind Speed 12 mph    
Max Gust Speed 15 mph    
Visibility 10 miles    
Events      
T = Trace of Precipitation, MM = Missing Value Source: NWS Daily Summary

Daily Weather History Graph

Daily Weather History Graph

Search for Another Location

Airport or City:

Astronomy

Jul. 14, 2019 Rise Set
Actual Time 6:16 AM EDT 9:16 PM EDT
Civil Twilight 5:43 AM EDT 9:50 PM EDT
Nautical Twilight 5:00 AM EDT 10:32 PM EDT
Astronomical Twilight 4:09 AM EDT 11:23 PM EDT
Moon 7:38 PM EDT (7/14) 4:17 AM EDT (7/14)
Length of Visible Light 16h 07m
Length of Day
14h 59m
Waxing Gibbous, 95% of the Moon is Illuminated
Jul 14
Waxing Gibbous
Jul 16
Full
Jul 24
Last Quarter
Jul 31
New
Aug 7
First Quarter

Hourly Weather History & Observations

Time (EDT) Temp. Heat Index Dew Point Humidity Pressure Visibility Wind Dir Wind Speed Gust Speed Precip Events Conditions
12:53 AM 73.0 °F - 60.1 °F 64% 30.07 in 10.0 mi NNE 5.8 mph - N/A   Mostly Cloudy
1:53 AM 72.0 °F - 59.0 °F 64% 30.07 in 10.0 mi NNE 5.8 mph - N/A   Clear
2:53 AM 72.0 °F - 57.9 °F 61% 30.08 in 10.0 mi NE 4.6 mph - N/A   Partly Cloudy
3:53 AM 70.0 °F - 57.9 °F 65% 30.09 in 10.0 mi NE 3.5 mph - N/A   Scattered Clouds
4:53 AM 69.1 °F - 57.9 °F 68% 30.10 in 10.0 mi NE 3.5 mph - N/A   Mostly Cloudy
5:53 AM 66.0 °F - 59.0 °F 78% 30.12 in 10.0 mi Calm Calm - N/A   Partly Cloudy
6:53 AM 66.0 °F - 59.0 °F 78% 30.14 in 10.0 mi Calm Calm - N/A   Clear
7:53 AM 70.0 °F - 59.0 °F 68% 30.15 in 10.0 mi Calm Calm - N/A   Clear
8:53 AM 73.0 °F - 59.0 °F 61% 30.15 in 10.0 mi NNE 5.8 mph - N/A   Clear
9:53 AM 75.9 °F - 59.0 °F 56% 30.16 in 10.0 mi Calm Calm - N/A   Clear
10:53 AM 78.1 °F - 57.9 °F 50% 30.14 in 10.0 mi Calm Calm - N/A   Clear
11:53 AM 80.1 °F 80.7 °F 59.0 °F 48% 30.14 in 10.0 mi WNW 6.9 mph - N/A   Clear
12:53 PM 82.9 °F 82.0 °F 55.0 °F 38% 30.14 in 10.0 mi NE 9.2 mph - N/A   Clear
1:53 PM 84.0 °F 83.3 °F 57.0 °F 40% 30.13 in 10.0 mi Variable 5.8 mph - N/A   Clear
2:53 PM 84.9 °F 83.7 °F 55.9 °F 37% 30.13 in 10.0 mi NE 5.8 mph - N/A   Clear
3:53 PM 84.9 °F 83.6 °F 55.0 °F 36% 30.13 in 10.0 mi NE 3.5 mph - N/A   Clear
4:53 PM 86.0 °F 84.7 °F 55.9 °F 36% 30.11 in 10.0 mi North 6.9 mph - N/A   Clear
5:53 PM 86.0 °F 84.9 °F 57.0 °F 37% 30.11 in 10.0 mi NNW 5.8 mph - N/A   Clear
6:53 PM 84.9 °F 83.9 °F 57.0 °F 38% 30.10 in 10.0 mi Variable 4.6 mph - N/A   Clear
7:53 PM 84.0 °F 83.5 °F 57.9 °F 41% 30.09 in 10.0 mi North 4.6 mph - N/A   Clear
8:53 PM 82.0 °F 81.6 °F 55.9 °F 41% 30.09 in 10.0 mi ENE 3.5 mph - N/A   Clear
9:53 PM 79.0 °F - 57.9 °F 48% 30.10 in 10.0 mi SE 4.6 mph - N/A   Clear
10:53 PM 73.0 °F - 61.0 °F 66% 30.11 in 10.0 mi Calm Calm - N/A   Clear
11:53 PM 71.1 °F - 62.1 °F 73% 30.10 in 10.0 mi Calm Calm - N/A   Clear